Find Lemur-2 TomatoKechup

NORAD ID: 60471 Int'l Des: 2024-149 Owner: SPIREG/HUBN Country: US Constellation: spire operational
LEOCIRCULARRETROGRADESSO

实时位置

正在加载3D地球...

关于 Lemur-2 TomatoKechup

正在加载描述...

即将过境

Passes for default location (London). Set your location on the main map for personalized predictions.

高度历史

Loading altitude history...

两行轨道根数

1 60471U 24149D 26120.66589747 .00011290 00000-0 33428-3 0 9997
2 60471 97.3804 202.6289 0002863 73.9855 286.1703 15.35042988 94876
Epoch: Apr 30, 2026 • Age: 13 hours

当前状态

高度 469.2 km
速度 7.64 km/s
星下点 57.52°N, 100.31°E
发射日期 Aug 16, 2024
运行时间 1.7 years
类型 other

技术详情

分类 Payload
质量 22.00 kg
干质量 22.00 kg
总质量 22.00 kg
长度 0.50 m
直径 0.20 m
跨度 2.00 m
形状 Box+ 4 pan
制造商 SPIREG
平台类型 Cubesat 16U
阶段状态 In Orbit
所有者/国家 SPIREG/HUBN/US

Most Searched